Weather History for KPNA - September, 2013

Change the Weather History Date:

Thursday, September 26, 2013

  Actual Average (KBPI) Record (KBPI)
Temperature  
Mean Temperature 38 °F 46 °F  
Max Temperature 44 °F 64 °F 82 °F (2010)
Min Temperature 32 °F 28 °F 14 °F (1984)
Degree Days  
Heating Degree Days 27 19  
Month to date heating degree days 377  
Since 1 July heating degree days 670  
Cooling Degree Days 0 0  
Month to date cooling degree days 0  
Year to date cooling degree days 35  
Moisture  
Dew Point 33 °F    
Average Humidity 91    
Maximum Humidity 100    
Minimum Humidity 61    
Precipitation  
Precipitation 0.00 in 0.02 in 0.10 in (1995)
Month to date precipitation 0.68  
Year to date precipitation 5.34  
Sea Level Pressure  
Sea Level Pressure 29.84 in    
Wind  
Wind Speed 7 mph (SE)    
Max Wind Speed 15 mph    
Max Gust Speed 18 mph    
Visibility 9 miles    
Events Rain , Snow    
T = Trace of Precipitation, MM = Missing Value Source: NWS Daily Summary

Daily Weather History Graph

Daily Weather History Graph

Search for Another Location

Airport or City:

Trip Planner

Search our weather history database for the weather conditions in past years. The results will help you decide how hot, cold, wet, or windy it might be!

Date:

Astronomy

Sep. 26, 2013 Rise Set
Actual Time 7:11 AM MDT 7:08 PM MDT
Civil Twilight 6:43 AM MDT 7:36 PM MDT
Nautical Twilight 6:10 AM MDT 8:09 PM MDT
Astronomical Twilight 5:36 AM MDT 8:43 PM MDT
Moon No Moon Rise 2:12 PM MDT (9/26)
Length of Visible Light 12h 53m
Length of Day
11h 57m
Waning Gibbous, 54% of the Moon is Illuminated
Sep 26
Waning Gibbous
Sep 26
Last Quarter
Oct 4
New
Oct 11
First Quarter
Oct 18
Full

Hourly Weather History & Observations

Time (MDT) Temp. Windchill Dew Point Humidity Pressure Visibility Wind Dir Wind Speed Gust Speed Precip Events Conditions
12:15 AM 33.8 °F 30.8 °F 33.8 °F 100% 29.81 in 10.0 mi ESE 3.5 mph - N/A   Overcast
12:35 AM 33.8 °F 28.6 °F 33.8 °F 100% 29.81 in 10.0 mi ESE 5.8 mph - N/A   Overcast
12:55 AM 33.8 °F 27.7 °F 33.8 °F 100% 29.83 in 10.0 mi SE 6.9 mph - N/A   Overcast
1:15 AM 33.8 °F 29.6 °F 33.8 °F 100% 29.82 in 10.0 mi ESE 4.6 mph - N/A   Overcast
1:35 AM 33.8 °F 27.7 °F 33.8 °F 100% 29.81 in 10.0 mi East 6.9 mph - N/A   Overcast
1:55 AM 33.8 °F 28.6 °F 33.8 °F 100% 29.83 in 10.0 mi ESE 5.8 mph - N/A   Overcast
2:15 AM 33.8 °F 27.7 °F 33.8 °F 100% 29.83 in 10.0 mi ESE 6.9 mph - N/A   Overcast
2:35 AM 33.8 °F 26.4 °F 33.8 °F 100% 29.82 in 10.0 mi ESE 9.2 mph - N/A   Light Drizzle
2:55 AM 33.8 °F 26.4 °F 33.8 °F 100% 29.82 in 7.0 mi ESE 9.2 mph - N/A   Light Drizzle
3:15 AM 33.8 °F 25.3 °F 33.8 °F 100% 29.82 in 7.0 mi SE 11.5 mph - N/A Rain Light Rain
3:35 AM 33.8 °F 27.0 °F 33.8 °F 100% 29.83 in 7.0 mi SSE 8.1 mph - N/A Rain Light Rain
3:55 AM 32.0 °F 24.2 °F 32.0 °F 100% 29.83 in 7.0 mi SSE 9.2 mph - N/A Rain Light Rain
4:15 AM 32.0 °F 25.6 °F 32.0 °F 100% 29.83 in 7.0 mi SSE 6.9 mph - N/A Snow Light Snow
4:35 AM 33.8 °F 26.4 °F 33.8 °F 100% 29.82 in 10.0 mi SSE 9.2 mph - N/A Snow Light Snow
4:55 AM 33.8 °F 27.0 °F 33.8 °F 100% 29.83 in 10.0 mi SSE 8.1 mph - N/A   Overcast
5:15 AM 33.8 °F 27.0 °F 33.8 °F 100% 29.82 in 10.0 mi SSE 8.1 mph - N/A   Overcast
5:35 AM 33.8 °F 27.7 °F 33.8 °F 100% 29.83 in 10.0 mi SSE 6.9 mph - N/A   Overcast
5:55 AM 33.8 °F 27.0 °F 33.8 °F 100% 29.84 in 10.0 mi SSE 8.1 mph - N/A   Overcast
6:15 AM 33.8 °F 28.6 °F 32.0 °F 93% 29.83 in 10.0 mi SSE 5.8 mph - N/A   Overcast
6:35 AM 33.8 °F 27.0 °F 32.0 °F 93% 29.84 in 10.0 mi SSE 8.1 mph - N/A   Overcast
6:55 AM 33.8 °F 27.7 °F 32.0 °F 93% 29.84 in 10.0 mi SSE 6.9 mph - N/A   Overcast
7:15 AM 32.0 °F 26.4 °F 32.0 °F 100% 29.85 in 7.0 mi South 5.8 mph - N/A   Overcast
7:35 AM 32.0 °F 28.7 °F 32.0 °F 100% 29.85 in 7.0 mi SE 3.5 mph - N/A   Overcast
7:55 AM 32.0 °F 26.4 °F 32.0 °F 100% 29.85 in 10.0 mi SSE 5.8 mph - N/A   Overcast
8:15 AM 33.8 °F 27.7 °F 32.0 °F 93% 29.85 in 10.0 mi SSE 6.9 mph - N/A   Overcast
8:35 AM 33.8 °F 28.6 °F 32.0 °F 93% 29.85 in 7.0 mi SSE 5.8 mph - N/A Snow Light Snow
8:55 AM 33.8 °F 29.6 °F 32.0 °F 93% 29.85 in 10.0 mi SSE 4.6 mph - N/A Snow Light Snow
9:15 AM 33.8 °F 29.6 °F 33.8 °F 100% 29.84 in 5.0 mi ESE 4.6 mph - N/A Snow Light Snow
9:35 AM 33.8 °F - 32.0 °F 93% 29.85 in 10.0 mi Calm Calm - N/A   Overcast
9:55 AM 33.8 °F - 33.8 °F 100% 29.85 in 10.0 mi Calm Calm - N/A Snow Light Snow
10:15 AM 35.6 °F 32.8 °F 32.0 °F 87% 29.85 in 10.0 mi SSE 3.5 mph - N/A   Overcast
10:35 AM 35.6 °F 31.7 °F 32.0 °F 87% 29.85 in 10.0 mi South 4.6 mph - N/A   Overcast
10:55 AM 35.6 °F 32.8 °F 32.0 °F 87% 29.85 in 10.0 mi SSE 3.5 mph - N/A   Overcast
11:15 AM 37.4 °F 34.9 °F 32.0 °F 81% 29.84 in 10.0 mi East 3.5 mph - N/A   Overcast
11:35 AM 37.4 °F 32.1 °F 32.0 °F 81% 29.84 in 10.0 mi SE 6.9 mph - N/A   Overcast
11:55 AM 39.2 °F 33.6 °F 33.8 °F 81% 29.84 in 10.0 mi SE 8.1 mph - N/A   Overcast
12:15 PM 41.0 °F 38.0 °F 32.0 °F 70% 29.83 in 10.0 mi SSE 4.6 mph - N/A   Mostly Cloudy
12:35 PM 41.0 °F 36.4 °F 33.8 °F 76% 29.83 in 10.0 mi ESE 6.9 mph - N/A   Mostly Cloudy
12:55 PM 41.0 °F 37.1 °F 33.8 °F 76% 29.83 in 10.0 mi ESE 5.8 mph - N/A   Overcast
1:15 PM 42.8 °F - 32.0 °F 66% 29.83 in 10.0 mi Calm Calm - N/A   Overcast
1:35 PM 42.8 °F 37.5 °F 32.0 °F 66% 29.83 in 10.0 mi South 9.2 mph - N/A   Overcast
1:55 PM 44.6 °F 40.7 °F 33.8 °F 66% 29.82 in 10.0 mi South 6.9 mph - N/A   Overcast
2:15 PM 44.6 °F 39.7 °F 32.0 °F 61% 29.82 in 10.0 mi South 9.2 mph - N/A   Overcast
2:35 PM 42.8 °F 36.6 °F 33.8 °F 70% 29.82 in 10.0 mi SE 11.5 mph 18.4 mph N/A Rain Light Rain
2:55 PM 42.8 °F 37.0 °F 35.6 °F 76% 29.82 in 10.0 mi ESE 10.4 mph 16.1 mph N/A   Overcast
3:15 PM 42.8 °F 38.6 °F 33.8 °F 70% 29.83 in 10.0 mi ESE 6.9 mph - N/A   Overcast
3:35 PM 44.6 °F 38.8 °F 35.6 °F 71% 29.82 in 10.0 mi East 11.5 mph - N/A   Overcast
3:55 PM 42.8 °F 36.6 °F 33.8 °F 70% 29.82 in 10.0 mi ESE 11.5 mph - N/A   Overcast
4:15 PM 42.8 °F 35.8 °F 33.8 °F 70% 29.82 in 10.0 mi ESE 13.8 mph 18.4 mph N/A   Overcast
4:35 PM 41.0 °F 33.1 °F 33.8 °F 76% 29.81 in 10.0 mi ESE 15.0 mph - N/A   Overcast
4:55 PM 41.0 °F 33.1 °F 33.8 °F 76% 29.82 in 10.0 mi ESE 15.0 mph - N/A   Overcast
5:15 PM 39.2 °F 32.5 °F 33.8 °F 81% 29.82 in 10.0 mi ESE 10.4 mph - N/A   Overcast
5:35 PM 37.4 °F 30.3 °F 33.8 °F 87% 29.83 in 10.0 mi ESE 10.4 mph - N/A   Overcast
5:55 PM 37.4 °F 32.8 °F 33.8 °F 87% 29.84 in 10.0 mi ESE 5.8 mph - N/A   Light Drizzle
6:15 PM 37.4 °F 30.8 °F 33.8 °F 87% 29.86 in 10.0 mi ESE 9.2 mph - N/A Rain Light Rain
6:35 PM 37.4 °F 31.4 °F 35.6 °F 93% 29.85 in 10.0 mi ESE 8.1 mph - N/A Rain Light Rain
6:55 PM 35.6 °F 32.8 °F 33.8 °F 93% 29.87 in 10.0 mi SSE 3.5 mph - N/A Rain Light Rain
7:15 PM 35.6 °F - 33.8 °F 93% 29.87 in 5.0 mi Calm Calm - N/A Rain Rain
7:35 PM 32.0 °F 27.5 °F 32.0 °F 100% 29.87 in 1.2 mi SE 4.6 mph - N/A Snow Light Snow
7:55 PM 32.0 °F 27.5 °F 32.0 °F 100% 29.87 in 7.0 mi ENE 4.6 mph - N/A Rain Light Rain
8:15 PM 33.8 °F 27.7 °F 33.8 °F 100% 29.86 in 10.0 mi NNE 6.9 mph - N/A Rain Light Rain
8:35 PM 33.8 °F 26.4 °F 33.8 °F 100% 29.88 in 5.0 mi East 9.2 mph - N/A Snow Light Snow
8:55 PM 32.0 °F - 32.0 °F 100% 29.89 in 1.2 mi North - - N/A Snow Light Snow
9:15 PM 32.0 °F 26.4 °F 32.0 °F 100% 29.91 in 3.0 mi East 5.8 mph - N/A Snow Light Snow
9:35 PM 32.0 °F 24.2 °F 32.0 °F 100% 29.90 in 7.0 mi East 9.2 mph 16.1 mph N/A Snow Light Snow
9:55 PM 33.8 °F 27.0 °F 33.8 °F 100% 29.91 in 10.0 mi East 8.1 mph - N/A Rain Light Rain
10:15 PM 33.8 °F 26.4 °F 33.8 °F 100% 29.90 in 7.0 mi ENE 9.2 mph - N/A Rain Light Rain
10:35 PM 33.8 °F 26.4 °F 33.8 °F 100% 29.90 in 10.0 mi East 9.2 mph - N/A   Overcast
10:55 PM 33.8 °F 27.0 °F 33.8 °F 100% 29.89 in 10.0 mi East 8.1 mph - N/A Rain Light Rain
11:15 PM 33.8 °F 25.3 °F 33.8 °F 100% 29.87 in 7.0 mi ENE 11.5 mph - N/A Snow Light Snow
11:35 PM 33.8 °F 27.0 °F 33.8 °F 100% 29.90 in 10.0 mi ESE 8.1 mph - N/A   Overcast
11:55 PM 33.8 °F 27.7 °F 33.8 °F 100% 29.90 in 10.0 mi East 6.9 mph - N/A   Overcast